Regional Weather Roundup
Issued by NWS Green Bay, WI

Home | Current Version | Previous Version | Graphics & Text | Print | Product List | Glossary Off
Versions: 1 2 3 4 5 6 7 8 9 10 11 12 13 14 15 16 17 18 19 20 21 22 23 24 25 26 27 28 29 30 31 32 33 34 35 36 37 38 39 40 41 42 43 44 45 46 47 48 49 50

000
ASUS43 KGRB 012059
RWRGRB

NORTH-CENTRAL AND NORTHEAST WISCONSIN REGIONAL WEATHER ROUNDUP
NATIONAL WEATHER SERVICE GREEN BAY WI
400 PM CDT WED APR 01 2015

WIZ005-009-010>012-018-019-012200-
NORTH CENTRAL WISCONSIN

CITY           SKY/WX    TMP DP  RH WIND       PRES   REMARKS
IRONWOOD       CLOUDY    54  37  54 SE13      29.59F
MANITOWISH WTR NOT AVBL
ARBOR VITAE    NOT AVBL
EAGLE RIVER    NOT AVBL
LAND O LAKES   NOT AVBL
RHINELANDER    MOSUNNY   59  34  39 S17G28    29.72F
PHILLIPS       NOT AVBL
ANTIGO         NOT AVBL
TOMAHAWK       NOT AVBL
MERRILL        NOT AVBL
$$

WIZ013-073-012200-
NORTHEAST WISCONSIN

CITY           SKY/WX    TMP DP  RH WIND       PRES   REMARKS
IRON MOUNTAIN  PTSUNNY   52  30  43 SE17G24   29.77F
MARINETTE      MOSUNNY   46  34  61 S14       29.85F
$$

WIZ017-030-035>037-045-012200-
CENTRAL WISCONSIN

CITY           SKY/WX    TMP DP  RH WIND       PRES   REMARKS
MEDFORD        NOT AVBL
WAUSAU         SUNNY     66  35  31 S17G28    29.71F
MOSINEE        SUNNY     66  36  32 S23       29.74F
MARSHFIELD     MOSUNNY   74  35  24 S22G29    29.69F
WISC RAPIDS    MOSUNNY   75  31  19 S18G31    29.73F
STEVENS POINT  NOT AVBL
WAUPACA        NOT AVBL
SHAWANO        NOT AVBL
CLINTONVILLE   NOT AVBL
$$

WIZ038-039-048-051-012200-
FOX VALLEY

CITY           SKY/WX    TMP DP  RH WIND       PRES   REMARKS
NWS GREEN BAY  SUNNY     56  39  53 SE22G30   29.82F
APPLETON       MOSUNNY   61  36  39 SE18G25   29.82F
OSHKOSH        MOSUNNY   64  39  39 SE17      29.80F
FOND DU LAC    MOSUNNY   65  39  38 SE18      29.82F
$$

WIZ022-050-052-012200-
EAST CENTRAL WISCONSIN

CITY           SKY/WX    TMP DP  RH WIND       PRES   REMARKS
STURGEON BAY   MOSUNNY   46  34  61 S21G26    29.88F
MANITOWOC      NOT AVBL
SHEBOYGAN      SUNNY     50  36  58 S17G23    29.88F
$$

LMZ563-521-522-541>543-012200-
LAKESHORE

STATION/POSITION TIME  TEMP    WIND        PRES    VSBY  WAVE
                       AIR SEA DIR/SP/G                  HT/PER
                 (UTC) (F)     (DEG/KT/KT) (MB)    (MI)  (FT/S)
SHEBOYGAN LKSHOR 2000   37     170/ 10/ 12 1014.6F
KEWAUNEE LKSHORE 2000   37     170/ 10/ 13 1012.1F
NORTHPORT PIER   2000   34     140/ 12/ 13 1013.2F
CHAMBERS ISLAND  2000   45     110/ 10/ 16 1012.9F
MENOMINEE LKSHOR 2000   34     120/ 10     1012.2F
$$



USA.gov is the U.S. government's official web portal to all federal, state and local government web resources and services.